Welcome to the Frederick Aero Club


To experience the joy of flying in a safe and friendly environment that will allow you to utilize your pilot certificate, in a trusted piece of well-maintained equipment that you can become comfortable in. Experience the joy of aircraft ownership without the large expense. The Frederick Aero Club allows you to share ownership with like-minded others at a much lower cost than renting. Make new friends and enjoy flying with other club members

  • Based and hangared at KFDK Frederick, Maryland
  • Just outside the SFRA
  • Low Monthly costs
  • WAAS Garmin 530 GPS
  • Slaved HSI
  • Auto Pilot
  • WX Weather and Radio
  • Traffic Alerter
  • Standby Electric Vac Pump
  • Medco Door Locks
  • Rosen Sun Screens
  • IFR Certified
  • Online Scheduling

Club Rates

$185 per month

$95 per hobbs hour wet

Excellent club rates make flying affordable.

airplane

Latest Frederick Metar From DUATS

METAR KFDK 170335Z AUTO 01004KT 7SM DZ OVC007 18/18 A3000 RMK AO2 P0003


Ready to join? Get in touch with us to see if we have memberships available.

Meetings are held every second Thursday of the month at Airways Cafe on the field at 1900 local.

Come join us!